When you browse on this site, cookies collect data to enhance your experience and personalize the content and advertising you see.
Visit our Privacy Policy to learn more. By continuing to use the site, you agree to this use of cookies and data.
  • In Sweden
  • List of Countries
  • For 7 days
  • Water Temperature
  • Weather Map
  • Weather Widgets
  • user-avatar
    Login

    Hourly Weather Clinton

    Today, 3 June, Wednesday

    Time Temperature Precipitation Wind Pressure Humidity
    00:00 +24°C° 0 mm 2 mps 742 mmHg 94%
    01:00 +23°C° 1.5 mm 2 mps 742 mmHg 94%
    02:00 +21°C° 1.5 mm 2 mps 742 mmHg 94%
    03:00 +20°C° 1.5 mm 2 mps 741 mmHg 94%
    04:00 +20°C° 1.1 mm 3 mps 741 mmHg 93%
    05:00 +20°C° 1.1 mm 3 mps 741 mmHg 93%
    06:00 +21°C° 0 mm 3 mps 742 mmHg 93%
    07:00 +22°C° 1.7 mm 3 mps 742 mmHg 92%
    08:00 +25°C° 1.7 mm 3 mps 742 mmHg 91%
    09:00 +26°C° 1.7 mm 2 mps 741 mmHg 89%
    10:00 +27°C° 1 mm 2 mps 741 mmHg 86%
    11:00 +27°C° 1 mm 2 mps 741 mmHg 82%
    12:00 +28°C° 1 mm 1 mps 741 mmHg 79%
    13:00 +28°C° 0.6 mm 2 mps 741 mmHg 78%
    14:00 +28°C° 0.6 mm 2 mps 740 mmHg 77%
    15:00 +28°C° 0.6 mm 3 mps 740 mmHg 75%
    16:00 +27°C° 1 mm 3 mps 740 mmHg 79%
    17:00 +26°C° 1 mm 2 mps 739 mmHg 82%
    18:00 +25°C° 1 mm 2 mps 739 mmHg 85%
    19:00 +24°C° 0 mm 2 mps 739 mmHg 87%
    20:00 +23°C° 0 mm 2 mps 739 mmHg 89%
    21:00 +21°C° 0 mm 1 mps 739 mmHg 91%
    22:00 +21°C° 0 mm 1 mps 739 mmHg 90%
    23:00 +21°C° 0 mm 1 mps 740 mmHg 90%

    Tomorrow, 4 June, Thursday

    Time Temperature Precipitation Wind Pressure Humidity
    00:00 +20°C° 0 mm 1 mps 740 mmHg 89%
    01:00 +20°C° 0 mm 1 mps 739 mmHg 89%
    02:00 +19°C° 0 mm 1 mps 739 mmHg 89%
    03:00 +19°C° 0 mm 1 mps 739 mmHg 88%
    04:00 +19°C° 0 mm 1 mps 739 mmHg 87%
    05:00 +20°C° 0 mm 1 mps 740 mmHg 86%
    06:00 +21°C° 0 mm 1 mps 740 mmHg 85%
    07:00 +22°C° 0 mm 1 mps 740 mmHg 81%
    08:00 +23°C° 0 mm 1 mps 740 mmHg 77%
    09:00 +25°C° 0 mm 1 mps 740 mmHg 73%
    10:00 +26°C° 0 mm 1 mps 740 mmHg 70%
    11:00 +26°C° 0 mm 1 mps 740 mmHg 68%
    12:00 +27°C° 0 mm 1 mps 740 mmHg 65%
    13:00 +28°C° 0 mm 1 mps 740 mmHg 62%
    14:00 +29°C° 0 mm 1 mps 740 mmHg 59%
    15:00 +29°C° 0 mm 1 mps 739 mmHg 56%
    16:00 +29°C° 0 mm 1 mps 739 mmHg 60%
    17:00 +29°C° 0 mm 1 mps 740 mmHg 64%
    18:00 +28°C° 0 mm 1 mps 740 mmHg 68%
    19:00 +27°C° 0 mm 1 mps 740 mmHg 70%
    20:00 +25°C° 0 mm 1 mps 740 mmHg 73%
    21:00 +23°C° 0 mm 2 mps 740 mmHg 76%
    22:00 +21°C° 0 mm 2 mps 740 mmHg 77%
    23:00 +21°C° 0 mm 2 mps 740 mmHg 79%

    Day after tomorrow, 5 June, Friday

    Time Temperature Precipitation Wind Pressure Humidity
    00:00 +20°C° 0 mm 2 mps 740 mmHg 81%
    01:00 +20°C° 0 mm 2 mps 739 mmHg 82%
    02:00 +19°C° 0 mm 2 mps 739 mmHg 84%
    03:00 +19°C° 0 mm 2 mps 739 mmHg 85%
    04:00 +20°C° 0 mm 2 mps 739 mmHg 85%
    05:00 +20°C° 0 mm 2 mps 740 mmHg 85%
    06:00 +21°C° 0 mm 2 mps 740 mmHg 84%
    07:00 +24°C° 0 mm 2 mps 740 mmHg 83%
    08:00 +26°C° 0 mm 3 mps 740 mmHg 82%
    09:00 +27°C° 0 mm 4 mps 741 mmHg 81%
    10:00 +28°C° 0 mm 4 mps 741 mmHg 77%
    11:00 +29°C° 0 mm 4 mps 741 mmHg 73%
    12:00 +29°C° 0 mm 4 mps 741 mmHg 69%
    13:00 +29°C° 0 mm 5 mps 741 mmHg 70%
    14:00 +28°C° 0 mm 5 mps 742 mmHg 70%
    15:00 +28°C° 0 mm 5 mps 742 mmHg 71%
    16:00 +27°C° 0 mm 5 mps 742 mmHg 72%
    17:00 +26°C° 0 mm 4 mps 742 mmHg 73%
    18:00 +26°C° 0 mm 3 mps 743 mmHg 74%
    19:00 +24°C° 0 mm 3 mps 743 mmHg 75%
    20:00 +21°C° 0 mm 3 mps 743 mmHg 76%
    21:00 +19°C° 0 mm 2 mps 744 mmHg 77%
    22:00 +19°C° 0 mm 2 mps 744 mmHg 78%
    23:00 +18°C° 0 mm 2 mps 744 mmHg 80%

    6 June, Saturday

    Time Temperature Precipitation Wind Pressure Humidity
    00:00 +18°C° 0 mm 2 mps 744 mmHg 81%
    01:00 +17°C° 0 mm 2 mps 745 mmHg 84%
    02:00 +16°C° 0 mm 3 mps 745 mmHg 86%
    03:00 +16°C° 0 mm 3 mps 745 mmHg 88%
    04:00 +14°C° 0 mm 3 mps 746 mmHg 87%
    05:00 +14°C° 0 mm 3 mps 746 mmHg 86%
    06:00 +14°C° 0 mm 3 mps 746 mmHg 84%
    07:00 +17°C° 0 mm 3 mps 746 mmHg 78%
    08:00 +18°C° 0 mm 3 mps 747 mmHg 72%
    09:00 +20°C° 0 mm 3 mps 747 mmHg 66%
    10:00 +21°C° 0 mm 3 mps 747 mmHg 63%
    11:00 +21°C° 0 mm 3 mps 747 mmHg 60%
    12:00 +22°C° 0 mm 3 mps 747 mmHg 57%
    13:00 +24°C° 0 mm 3 mps 747 mmHg 57%
    14:00 +24°C° 0 mm 3 mps 746 mmHg 57%
    15:00 +24°C° 0 mm 3 mps 746 mmHg 58%
    16:00 +24°C° 0 mm 3 mps 746 mmHg 63%
    17:00 +22°C° 0 mm 3 mps 746 mmHg 69%
    18:00 +21°C° 0 mm 2 mps 745 mmHg 75%
    19:00 +20°C° 0 mm 3 mps 746 mmHg 78%
    20:00 +18°C° 0 mm 3 mps 746 mmHg 80%
    21:00 +17°C° 0 mm 3 mps 746 mmHg 82%
    22:00 +16°C° 0 mm 3 mps 746 mmHg 84%
    23:00 +15°C° 0 mm 2 mps 746 mmHg 86%

    7 June, Sunday

    Time Temperature Precipitation Wind Pressure Humidity
    00:00 +15°C° 0 mm 2 mps 747 mmHg 87%
    01:00 +14°C° 0 mm 2 mps 747 mmHg 86%
    02:00 +12°C° 0 mm 3 mps 747 mmHg 85%
    03:00 +12°C° 0 mm 3 mps 747 mmHg 84%
    04:00 +12°C° 0 mm 3 mps 747 mmHg 83%
    05:00 +12°C° 0 mm 4 mps 747 mmHg 82%
    06:00 +12°C° 0 mm 4 mps 747 mmHg 82%
    07:00 +14°C° 0 mm 4 mps 747 mmHg 79%
    08:00 +17°C° 0 mm 4 mps 747 mmHg 77%
    09:00 +18°C° 0 mm 4 mps 747 mmHg 74%
    10:00 +20°C° 0 mm 4 mps 747 mmHg 72%
    11:00 +21°C° 0 mm 5 mps 747 mmHg 70%
    12:00 +22°C° 0 mm 5 mps 746 mmHg 67%
    13:00 +23°C° 0 mm 5 mps 746 mmHg 67%
    14:00 +25°C° 0 mm 5 mps 746 mmHg 66%
    15:00 +26°C° 0 mm 5 mps 745 mmHg 66%
    16:00 +25°C° 0 mm 4 mps 745 mmHg 70%
    17:00 +25°C° 0 mm 4 mps 745 mmHg 73%
    18:00 +23°C° 0 mm 4 mps 745 mmHg 77%
    19:00 +22°C° 0 mm 4 mps 745 mmHg 80%
    20:00 +20°C° 0 mm 4 mps 745 mmHg 83%
    21:00 +19°C° 0 mm 4 mps 745 mmHg 85%
    22:00 +18°C° 0 mm 4 mps 745 mmHg 86%
    23:00 +18°C° 0 mm 4 mps 745 mmHg 86%

    8 June, Monday

    Time Temperature Precipitation Wind Pressure Humidity
    00:00 +18°C° 0 mm 4 mps 745 mmHg 87%
    01:00 +17°C° 0 mm 4 mps 745 mmHg 87%
    02:00 +17°C° 0 mm 4 mps 745 mmHg 88%
    03:00 +15°C° 0 mm 4 mps 745 mmHg 88%
    04:00 +17°C° 0 mm 4 mps 745 mmHg 88%
    05:00 +17°C° 0 mm 4 mps 745 mmHg 88%
    06:00 +16°C° 0 mm 5 mps 746 mmHg 88%
    07:00 +19°C° 0 mm 5 mps 746 mmHg 84%
    08:00 +20°C° 0 mm 5 mps 745 mmHg 80%
    09:00 +22°C° 0 mm 6 mps 745 mmHg 76%
    10:00 +23°C° 0 mm 6 mps 745 mmHg 73%
    11:00 +24°C° 0 mm 6 mps 745 mmHg 70%
    12:00 +26°C° 0 mm 6 mps 745 mmHg 68%
    13:00 +27°C° 0 mm 6 mps 744 mmHg 67%
    14:00 +27°C° 0 mm 5 mps 744 mmHg 67%
    15:00 +28°C° 0 mm 5 mps 744 mmHg 66%
    16:00 +27°C° 0 mm 5 mps 743 mmHg 71%
    17:00 +27°C° 0 mm 4 mps 743 mmHg 75%
    18:00 +26°C° 0 mm 4 mps 742 mmHg 79%
    19:00 +25°C° 0 mm 4 mps 742 mmHg 83%
    20:00 +22°C° 0 mm 4 mps 742 mmHg 86%
    21:00 +21°C° 0 mm 4 mps 742 mmHg 90%
    22:00 +20°C° 0 mm 4 mps 742 mmHg 88%
    23:00 +20°C° 0 mm 4 mps 742 mmHg 86%
    Show more